User: anonymous   Login
Location: Saint Peter Port
(49.4500°N, 2.5330°W)
Time: 04:35:46
(UTC+01:00)
Language:

Cosmos 2242 Rocket - Orbit

View from above orbital plane
View from above orbital plane
View from above satellite
View from above satellite

Ground track
Ground track

The orbit data is extracted from the following two-line orbital elements,

1 22627U 93024B   16179.21462723  .00000113  00000-0  12356-4 0  9994
2 22627  82.5230  69.7582 0024819  53.6401  63.1174 14.78031013249714
Epoch (UTC): 27 June 2016 05:09:03
Eccentricity: 0.0024819
inclination: 82.5230°
perigee height: 618 km
apogee height: 653 km
right ascension of ascending node: 69.7582°
argument of perigee: 53.6401°
revolutions per day: 14.78031013
mean anomaly at epoch: 63.1174°
orbit number at epoch: 24971

The dashed part of the orbit path shows where the satellite is in the earth's shadow,  

DLR